Location: Alexandria
(38.8050°N, 77.0470°W)
Time: 13:37:01
(UTC-05:00)

Tiangong 1 - Pass Details

Date: 09 February 2018
Orbit: 246 x 267 km, 42.8° (Epoch: 23 February)

Event Time Altitude Azimuth Distance (km) Brightness Sun altitude
Exits shadow 06:18:39 17° 268° (W) 761 1.9 -9.8°
Maximum altitude 06:20:14 54° 344° (NNW) 324 0.5 -9.5°
Drops below altitude 10° 06:22:34 10° 64° (ENE) 1,065 4.2 -9.1°
Sets 06:24:31 0° 69° (ENE) 1,883 5.6 -8.7°
